Flag for Algeria Weather past 2 weeks in Constantine, Algeria

Now
43 °F

Sunny.


Feels Like: 43 °F
Forecast: 43 / 78 °F
Wind: No wind

Location: Constantine Airport


UV Index: 7 (High)

Visibility: 10 mi


Pressure: 30.01 "Hg

Humidity: 93%

Dew point: 41 °F

Location of ConstantineLocation

Historic Weather in Constantine

°F

Constantine temperature yesterday

Maximum temperature yesterday: 66 °F (at 3:30 PM)
Minimum temperature yesterday: 37 °F (at 4:00 AM)
Average temperature yesterday: 52 °F

Past Weeks' High & Low Weather Summary

 TemperatureHumidityPressure
High81 °F (Apr 12, 2:00 PM)100% (Apr 14, 6:00 AM)30.24 "Hg (Apr 14, 6:00 AM)
Low37 °F (Apr 7, 6:00 AM)27% (Apr 11, 1:00 PM)29.50 "Hg (Apr 3, 12:30 PM)
Average56 °F70%30.04 "Hg
* Reported Apr 3 6:00 AM — Apr 18 6:30 AM, Constantine, Weather by CustomWeather, © 2014

Note: Actual official high and low records may vary slightly from our data, if they occured in-between our weather recording intervals... More about our weather records

Advertising

Historic Weather Conditions — Data for Previous 24 hours

 ConditionsComfort  
Time TempWeatherWind HumidityBarometerVisibility
6:30 AM
Apr 18
39 °FSunny.No wind87%29.98 "Hg10 mi
6:00 AM37 °FSunny.No wind93%29.98 "Hg10 mi
5:30 AM39 °FClear.No wind93%29.98 "Hg10 mi
5:00 AM37 °FClear.No wind93%29.98 "Hg10 mi
4:30 AM39 °FClear.No wind87%29.98 "Hg10 mi
4:00 AM39 °FClear.No wind93%29.98 "Hg10 mi
3:30 AM39 °FClear.No wind93%30.01 "Hg10 mi
3:00 AM41 °FClear.No wind93%30.01 "Hg10 mi
2:30 AM39 °FClear.No wind87%30.04 "Hg10 mi
2:00 AM43 °FClear.No wind76%30.04 "Hg10 mi
1:30 AM43 °FClear.No wind81%30.04 "Hg10 mi
1:00 AM43 °FClear.No wind87%30.04 "Hg10 mi
12:30 AM43 °FClear.No wind87%30.04 "Hg10 mi
12:00 AM45 °FClear.No wind81%30.04 "Hg10 mi
11:30 PM
Apr 17
46 °FClear.No wind76%30.07 "Hg10 mi
11:00 PM46 °FClear.No wind76%30.07 "Hg10 mi
10:30 PM46 °FClear.No wind82%30.07 "Hg10 mi
10:00 PM46 °FClear.No wind82%30.07 "Hg10 mi
9:30 PM46 °FClear.No wind82%30.07 "Hg10 mi
9:00 PM50 °FClear.No wind76%30.07 "Hg10 mi
8:30 PM52 °FPassing clouds.No wind77%30.04 "HgN/A
8:00 PM52 °FPassing clouds.No wind72%30.04 "HgN/A
7:30 PM54 °FPassing clouds.2 mph72%30.04 "HgN/A
7:00 PM57 °FScattered clouds.7 mph63%30.04 "HgN/A
6:00 PM63 °FScattered clouds.2 mph56%30.04 "HgN/A
5:30 PM64 °FScattered clouds.7 mph49%30.04 "HgN/A
5:00 PM64 °FScattered clouds.7 mph49%30.04 "HgN/A
4:00 PM64 °FScattered clouds.7 mph46%30.04 "HgN/A
3:30 PM66 °FScattered clouds.7 mph43%30.04 "HgN/A
3:00 PM64 °FScattered clouds.8 mph46%30.04 "HgN/A
2:30 PM64 °FScattered clouds.9 mph43%30.04 "HgN/A
2:00 PM64 °FScattered clouds.8 mph43%30.04 "HgN/A
1:30 PM64 °FScattered clouds.6 mph46%30.07 "HgN/A
1:00 PM63 °FScattered clouds.6 mph45%30.07 "HgN/A
12:30 PM61 °FScattered clouds.6 mph52%30.07 "HgN/A
12:00 PM61 °FScattered clouds.3 mph55%30.09 "HgN/A
11:30 AM59 °FScattered clouds.6 mph55%30.09 "HgN/A
11:00 AM59 °FScattered clouds.7 mph55%30.09 "HgN/A
10:30 AM59 °FScattered clouds.9 mph55%30.12 "HgN/A
10:00 AM57 °FScattered clouds.10 mph63%30.09 "HgN/A
9:30 AM54 °FScattered clouds.7 mph72%30.09 "HgN/A
9:00 AM55 °FPassing clouds.5 mph67%30.09 "HgN/A
8:30 AM52 °FPassing clouds.No wind72%30.09 "HgN/A
8:00 AM46 °FPassing clouds.No wind76%30.09 "HgN/A
7:30 AM46 °FPassing clouds.No wind82%30.09 "HgN/A
7:00 AM43 °FPassing clouds.No wind87%30.09 "HgN/A
Weather by CustomWeather, © 2014

See weather overview